This is the latest recevied weather packets stored in our database for station/object NK7E-2. If no packets are shown the sender has not sent any weather packets the latest 10 day(s).
| Time | Temp. | Humidity | Pressure | Rain* | Wind** | Luminosity | Snow |
|---|---|---|---|---|---|---|---|
| 1777824317 | 24.44° C | 33% | 1024.4 hPa | 0 mm | - | - | - |
| 1777823717 | 24.44° C | 32% | 1024.4 hPa | 0 mm | - | - | - |
| 1777823117 | 24.44° C | 33% | 1024.5 hPa | 0 mm | - | - | - |
| 1777822517 | 23.89° C | 34% | 1024.4 hPa | 0 mm | - | - | - |
| 1777821917 | 23.89° C | 34% | 1024.5 hPa | 0 mm | - | - | - |
| 1777821317 | 23.89° C | 34% | 1024.4 hPa | 0 mm | - | - | - |
| 1777820717 | 23.33° C | 35% | 1024.3 hPa | 0 mm | - | - | - |
| 1777820117 | 22.22° C | 36% | 1023.9 hPa | 0 mm | - | - | - |
| 1777819517 | 21.67° C | 37% | 1023.8 hPa | 0 mm | - | - | - |
| 1777818917 | 21.11° C | 38% | 1023.9 hPa | 0 mm | - | - | - |
| 1777818317 | 21.11° C | 39% | 1023.8 hPa | 0 mm | - | - | - |
| 1777817717 | 20.56° C | 39% | 1023.5 hPa | 0 mm | - | - | - |
| 1777817117 | 20° C | 41% | 1023.3 hPa | 0 mm | - | - | - |
| 1777816517 | 19.44° C | 42% | 1023.1 hPa | 0 mm | - | - | - |
| 1777815917 | 18.89° C | 42% | 1023.3 hPa | 0 mm | - | - | - |
| 1777815317 | 18.89° C | 42% | 1023 hPa | 0 mm | - | - | - |
| 1777814717 | 18.89° C | 42% | 1022.9 hPa | 0 mm | - | - | - |
| 1777814117 | 18.89° C | 42% | 1023 hPa | 0 mm | - | - | - |
| 1777813517 | 18.33° C | 43% | 1022.6 hPa | 0 mm | - | - | - |
| 1777812917 | 18.33° C | 42% | 1022.4 hPa | 0 mm | - | - | - |
| 1777812317 | 18.33° C | 43% | 1022.2 hPa | 0 mm | - | - | - |
| 1777811717 | 17.78° C | 44% | 1022.5 hPa | 0 mm | - | - | - |
| 1777811117 | 17.78° C | 44% | 1022.7 hPa | 0 mm | - | - | - |
| 1777810517 | 18.33° C | 43% | 1022.7 hPa | 0 mm | - | - | - |
| 1777809917 | 18.33° C | 43% | 1022.5 hPa | 0 mm | - | - | - |
* Rain latest hour (hover to see other rain measurements)
** Current wind speed in m/s (hover to see current wind gust speed)